TimeMST,TemperatureF,Dew PointF,Humidity,Sea Level PressureIn,VisibilityMPH,Wind Direction,Wind SpeedMPH,Gust SpeedMPH,PrecipitationIn,Events,Conditions,WindDirDegrees,DateUTC
12:14 AM,44.6,19.4,37,30.03,10.0,North,4.6,-,N/A,,Clear,360,2013-12-28 07:14:00
12:34 AM,42.8,19.4,39,30.02,10.0,North,8.1,-,N/A,,Clear,350,2013-12-28 07:34:00
12:55 AM,41.0,19.4,42,30.01,10.0,NNW,5.8,-,N/A,,Clear,340,2013-12-28 07:55:00
1:15 AM,37.4,21.2,52,30.01,10.0,NNW,8.1,-,N/A,,Clear,340,2013-12-28 08:15:00
1:35 AM,37.4,19.4,48,29.99,10.0,NNW,4.6,-,N/A,,Clear,330,2013-12-28 08:35:00
1:55 AM,41.0,19.4,42,29.99,10.0,North,3.5,-,N/A,,Clear,360,2013-12-28 08:55:00
2:15 AM,41.0,19.4,42,29.98,10.0,Calm,Calm,-,N/A,,Clear,0,2013-12-28 09:15:00
2:35 AM,33.8,19.4,56,29.98,10.0,WSW,4.6,-,N/A,,Clear,240,2013-12-28 09:35:00
2:55 AM,35.6,21.2,56,29.97,10.0,Calm,Calm,-,N/A,,Clear,0,2013-12-28 09:55:00
3:15 AM,37.4,19.4,48,29.97,10.0,SW,4.6,-,N/A,,Clear,230,2013-12-28 10:15:00
3:35 AM,37.4,21.2,52,29.96,10.0,West,5.8,-,N/A,,Clear,260,2013-12-28 10:35:00
3:54 AM,37.4,21.2,52,29.95,10.0,WSW,5.8,-,N/A,,Clear,250,2013-12-28 10:54:00
4:15 AM,39.2,19.4,45,29.95,10.0,Calm,Calm,-,N/A,,Clear,0,2013-12-28 11:15:00
4:35 AM,39.2,19.4,45,29.94,10.0,Calm,Calm,-,N/A,,Clear,0,2013-12-28 11:35:00
4:55 AM,41.0,19.4,42,29.93,10.0,Calm,Calm,-,N/A,,Clear,0,2013-12-28 11:55:00
5:47 AM,41.0,19.4,42,29.92,50.0,West,4.6,-,N/A,,Clear,260,2013-12-28 12:47:00
6:47 AM,46.4,19.4,34,29.91,50.0,Calm,Calm,-,N/A,,Clear,0,2013-12-28 13:47:00
7:55 AM,46.4,19.4,34,29.91,50.0,Calm,Calm,-,N/A,,Clear,0,2013-12-28 14:55:00
8:55 AM,44.6,21.2,39,29.91,50.0,Calm,Calm,-,N/A,,Partly Cloudy,0,2013-12-28 15:55:00
9:45 AM,48.2,21.2,34,29.91,50.0,Calm,Calm,-,N/A,,Partly Cloudy,0,2013-12-28 16:45:00
10:50 AM,57.2,19.4,23,29.90,50.0,NNW,4.6,-,N/A,,Scattered Clouds,340,2013-12-28 17:50:00
11:50 AM,57.2,21.2,25,29.88,50.0,North,4.6,-,N/A,,Mostly Cloudy,350,2013-12-28 18:50:00
12:47 PM,57.2,21.2,25,29.88,50.0,North,11.5,-,N/A,,Mostly Cloudy,350,2013-12-28 19:47:00
1:47 PM,50.0,21.2,32,29.90,50.0,North,8.1,-,N/A,,Mostly Cloudy,360,2013-12-28 20:47:00
2:47 PM,46.4,17.6,32,29.94,50.0,NNE,20.7,28.8,N/A,,Mostly Cloudy,20,2013-12-28 21:47:00
3:50 PM,42.8,19.4,39,29.99,40.0,NNE,13.8,20.7,N/A,,Mostly Cloudy,20,2013-12-28 22:50:00
4:50 PM,37.4,23.0,56,30.04,40.0,North,13.8,-,N/A,,Mostly Cloudy,10,2013-12-28 23:50:00
5:45 PM,35.6,24.8,65,30.07,15.0,North,13.8,-,N/A,,Mostly Cloudy,10,2013-12-29 00:45:00
6:53 PM,35.6,24.8,65,30.09,15.0,North,12.7,-,N/A,,Overcast,10,2013-12-29 01:53:00
7:10 PM,33.8,26.6,75,30.10,15.0,NNE,13.8,19.6,N/A,Snow,Light Snow,20,2013-12-29 02:10:00
7:45 PM,30.2,24.8,80,30.11,2.0,North,18.4,24.2,N/A,Snow,Light Snow,350,2013-12-29 02:45:00
8:26 PM,26.6,24.8,93,30.14,1.0,NNW,13.8,-,N/A,Snow,Light Snow,340,2013-12-29 03:26:00
8:52 PM,26.6,23.0,86,30.15,1.0,North,13.8,-,N/A,Snow,Light Snow,350,2013-12-29 03:52:00
9:45 PM,26.6,19.4,74,30.17,3.0,North,12.7,-,N/A,Snow,Light Snow,10,2013-12-29 04:45:00
10:15 PM,23.0,19.4,86,30.19,5.0,NNE,10.4,-,N/A,,Overcast,30,2013-12-29 05:15:00
10:35 PM,23.0,19.4,86,30.20,3.0,NNE,8.1,-,N/A,,Overcast,30,2013-12-29 05:35:00
10:54 PM,23.0,19.4,86,30.21,3.0,NNE,8.1,-,N/A,,Overcast,30,2013-12-29 05:54:00
11:15 PM,23.0,19.4,86,30.21,2.5,NNE,12.7,17.3,N/A,,Overcast,20,2013-12-29 06:15:00
11:35 PM,21.2,19.4,93,30.21,2.0,North,10.4,-,N/A,,Overcast,10,2013-12-29 06:35:00
11:55 PM,21.2,19.4,93,30.21,4.0,NNE,9.2,-,N/A,,Overcast,30,2013-12-29 06:55:00